Time,TemperatureF,DewpointF,PressureIn,WindDirection,WindDirectionDegrees,WindSpeedMPH,WindSpeedGustMPH,Humidity,HourlyPrecipIn,Conditions,Clouds,dailyrainin,SolarRadiationWatts/m^2,SoftwareType,DateUTC
2015-05-28 00:01:00,79.0,66.2,30.05,ENE,65,11.0,14.0,65,0.00,,BKN034,0.00,0.00,VWS V14.00,2015-05-28 04:01:00,
2015-05-28 00:06:00,79.0,66.2,30.05,NE,55,2.0,9.0,65,0.00,,BKN034,0.00,0.00,VWS V14.00,2015-05-28 04:06:00,
2015-05-28 00:11:00,78.9,66.2,30.05,ENE,70,7.0,7.0,65,0.00,,BKN034,0.00,0.00,VWS V14.00,2015-05-28 04:11:00,
2015-05-28 00:16:00,78.8,66.5,30.05,ENE,78,2.0,11.0,66,0.00,,BKN034,0.00,0.00,VWS V14.00,2015-05-28 04:16:00,
2015-05-28 00:21:00,78.7,66.0,30.05,East,80,9.0,10.0,65,0.00,,BKN034,0.00,0.00,VWS V14.00,2015-05-28 04:21:00,
2015-05-28 00:26:00,78.6,65.9,30.05,ENE,67,6.0,9.0,65,0.00,,BKN034,0.00,0.00,VWS V14.00,2015-05-28 04:26:00,
2015-05-28 00:31:00,78.5,65.8,30.05,ENE,65,5.0,6.0,65,0.00,,BKN034,0.00,0.00,VWS V14.00,2015-05-28 04:31:00,
2015-05-28 00:36:00,78.4,65.7,30.05,ENE,67,4.0,6.0,65,0.00,,BKN034,0.00,0.00,VWS V14.00,2015-05-28 04:36:00,
2015-05-28 00:41:00,78.3,65.6,30.05,NE,38,5.0,7.0,65,0.00,,BKN034,0.00,0.00,VWS V14.00,2015-05-28 04:41:00,
2015-05-28 00:46:00,78.2,65.0,30.05,East,80,5.0,5.0,64,0.00,,BKN034,0.00,0.00,VWS V14.00,2015-05-28 04:46:00,
2015-05-28 00:51:00,78.2,65.0,30.05,NE,53,3.0,9.0,64,0.00,,BKN034,0.00,0.00,VWS V14.00,2015-05-28 04:51:00,
2015-05-28 00:56:00,78.0,64.8,30.05,ENE,63,3.0,6.0,64,0.00,,BKN034,0.00,0.00,VWS V14.00,2015-05-28 04:56:00,
2015-05-28 01:01:00,77.9,65.2,30.05,ENE,64,4.0,4.0,65,0.00,,BKN034,0.00,0.00,VWS V14.00,2015-05-28 05:01:00,
2015-05-28 01:06:00,77.8,64.7,30.05,ENE,78,3.0,7.0,64,0.00,,BKN034,0.00,0.00,VWS V14.00,2015-05-28 05:06:00,
2015-05-28 01:11:00,77.7,64.6,30.05,East,89,5.0,7.0,64,0.00,,BKN034,0.00,0.00,VWS V14.00,2015-05-28 05:11:00,
2015-05-28 01:17:00,77.7,64.6,30.04,ENE,74,3.0,5.0,64,0.00,,BKN034,0.00,0.00,VWS V14.00,2015-05-28 05:17:00,
2015-05-28 01:22:00,77.6,64.5,30.03,East,80,4.0,5.0,64,0.00,,BKN034,0.00,0.00,VWS V14.00,2015-05-28 05:22:00,
2015-05-28 01:27:00,77.5,64.8,30.03,East,91,3.0,7.0,65,0.00,,BKN034,0.00,0.00,VWS V14.00,2015-05-28 05:27:00,
2015-05-28 01:32:00,77.5,64.8,30.03,East,101,3.0,8.0,65,0.00,,BKN034,0.00,0.00,VWS V14.00,2015-05-28 05:32:00,
2015-05-28 01:37:00,77.5,64.8,30.03,East,94,2.0,4.0,65,0.00,,BKN034,0.00,0.00,VWS V14.00,2015-05-28 05:37:00,
2015-05-28 01:42:00,77.4,64.7,30.03,East,84,6.0,6.0,65,0.00,,BKN034,0.00,0.00,VWS V14.00,2015-05-28 05:42:00,
2015-05-28 01:47:00,77.3,65.1,30.03,ENE,74,3.0,3.0,66,0.00,,BKN034,0.00,0.00,VWS V14.00,2015-05-28 05:47:00,
2015-05-28 01:52:00,77.2,65.0,30.03,ENE,78,3.0,4.0,66,0.00,,BKN034,0.00,0.00,VWS V14.00,2015-05-28 05:52:00,
2015-05-28 01:57:00,77.2,65.0,30.03,ENE,69,4.0,4.0,66,0.00,,BKN034,0.00,0.00,VWS V14.00,2015-05-28 05:57:00,
2015-05-28 02:02:00,77.1,64.9,30.02,East,99,4.0,6.0,66,0.00,,BKN034,0.00,0.00,VWS V14.00,2015-05-28 06:02:00,
2015-05-28 02:07:00,77.1,64.9,30.02,East,94,4.0,6.0,66,0.00,,BKN034,0.00,0.00,VWS V14.00,2015-05-28 06:07:00,
2015-05-28 02:12:00,77.2,65.4,30.02,ESE,107,4.0,6.0,67,0.00,,BKN034,0.00,0.00,VWS V14.00,2015-05-28 06:12:00,
2015-05-28 02:17:00,77.2,65.8,30.01,East,83,4.0,5.0,68,0.00,,BKN034,0.00,0.00,VWS V14.00,2015-05-28 06:17:00,
2015-05-28 02:22:00,77.2,65.8,30.02,East,86,3.0,5.0,68,0.00,,BKN034,0.00,0.00,VWS V14.00,2015-05-28 06:22:00,
2015-05-28 02:27:00,77.1,65.3,30.01,East,99,4.0,7.0,67,0.00,,BKN034,0.00,0.00,VWS V14.00,2015-05-28 06:27:00,
2015-05-28 02:32:00,77.1,64.9,30.01,East,93,6.0,7.0,66,0.00,,BKN034,0.00,0.00,VWS V14.00,2015-05-28 06:32:00,
2015-05-28 02:37:00,77.1,64.9,30.01,East,80,5.0,9.0,66,0.00,,BKN034,0.00,0.00,VWS V14.00,2015-05-28 06:37:00,
2015-05-28 02:42:00,77.0,64.8,30.00,East,83,3.0,7.0,66,0.00,,BKN034,0.00,0.00,VWS V14.00,2015-05-28 06:42:00,
2015-05-28 02:47:00,77.0,64.3,30.00,ESE,115,7.0,7.0,65,0.00,,BKN034,0.00,0.00,VWS V14.00,2015-05-28 06:47:00,
2015-05-28 02:52:00,76.9,64.7,30.00,ESE,105,3.0,4.0,66,0.00,,BKN034,0.00,0.00,VWS V14.00,2015-05-28 06:52:00,
2015-05-28 02:57:00,76.8,64.6,30.00,East,90,5.0,5.0,66,0.00,,BKN034,0.00,0.00,VWS V14.00,2015-05-28 06:57:00,
2015-05-28 03:02:00,76.7,64.5,30.00,ENE,58,3.0,5.0,66,0.00,,BKN034,0.00,0.00,VWS V14.00,2015-05-28 07:02:00,
2015-05-28 03:07:00,76.7,65.3,30.00,ENE,70,3.0,4.0,68,0.00,,BKN034,0.00,0.00,VWS V14.00,2015-05-28 07:07:00,
2015-05-28 03:12:00,76.6,64.8,30.00,ENE,77,2.0,6.0,67,0.00,,BKN034,0.00,0.00,VWS V14.00,2015-05-28 07:12:00,
2015-05-28 03:17:00,76.6,65.3,30.00,ENE,57,3.0,6.0,68,0.00,,BKN034,0.00,0.00,VWS V14.00,2015-05-28 07:17:00,
2015-05-28 03:22:00,76.7,65.3,30.00,ENE,66,5.0,5.0,68,0.00,,BKN034,0.00,0.00,VWS V14.00,2015-05-28 07:22:00,
2015-05-28 03:27:00,76.8,65.0,30.00,ENE,62,3.0,3.0,67,0.00,,BKN034,0.00,0.00,VWS V14.00,2015-05-28 07:27:00,
2015-05-28 03:32:00,76.9,64.7,30.00,ENE,70,4.0,9.0,66,0.00,,BKN034,0.00,0.00,VWS V14.00,2015-05-28 07:32:00,
2015-05-28 03:37:00,76.9,64.2,30.00,ENE,67,4.0,5.0,65,0.00,,BKN034,0.00,0.00,VWS V14.00,2015-05-28 07:37:00,
2015-05-28 03:42:00,77.0,63.9,30.00,East,81,3.0,6.0,64,0.00,,BKN034,0.00,0.00,VWS V14.00,2015-05-28 07:42:00,
2015-05-28 03:47:00,77.0,63.9,30.00,ENE,74,1.0,4.0,64,0.00,,BKN034,0.00,0.00,VWS V14.00,2015-05-28 07:47:00,
2015-05-28 03:52:00,76.9,63.8,30.00,ENE,69,3.0,4.0,64,0.00,,BKN034,0.00,0.00,VWS V14.00,2015-05-28 07:52:00,
2015-05-28 03:57:00,76.8,64.2,30.00,ENE,60,1.0,5.0,65,0.00,,BKN034,0.00,0.00,VWS V14.00,2015-05-28 07:57:00,
2015-05-28 04:02:00,76.7,64.5,30.00,East,81,6.0,7.0,66,0.00,,BKN034,0.00,0.00,VWS V14.00,2015-05-28 08:02:00,
2015-05-28 04:07:00,76.6,64.8,30.00,ESE,108,4.0,5.0,67,0.00,,BKN034,0.00,0.00,VWS V14.00,2015-05-28 08:07:00,
2015-05-28 04:12:00,76.5,64.7,30.00,East,90,2.0,5.0,67,0.00,,BKN034,0.00,0.00,VWS V14.00,2015-05-28 08:12:00,
2015-05-28 04:17:00,76.4,65.1,30.00,East,98,3.0,5.0,68,0.00,,BKN034,0.00,0.00,VWS V14.00,2015-05-28 08:17:00,
2015-05-28 04:22:00,76.3,65.0,30.00,East,101,5.0,5.0,68,0.00,,BKN034,0.00,0.00,VWS V14.00,2015-05-28 08:22:00,
2015-05-28 04:27:00,76.3,65.0,30.00,East,92,4.0,6.0,68,0.00,,BKN034,0.00,0.00,VWS V14.00,2015-05-28 08:27:00,
2015-05-28 04:32:00,76.3,65.0,30.00,East,80,4.0,5.0,68,0.00,,BKN034,0.00,0.00,VWS V14.00,2015-05-28 08:32:00,
2015-05-28 04:37:00,76.4,65.5,30.00,East,91,5.0,5.0,69,0.00,,BKN034,0.00,0.00,VWS V14.00,2015-05-28 08:37:00,
2015-05-28 04:42:00,76.4,65.5,30.00,ENE,70,2.0,3.0,69,0.00,,BKN034,0.00,0.00,VWS V14.00,2015-05-28 08:42:00,
2015-05-28 04:48:00,76.3,65.4,30.00,ENE,76,3.0,4.0,69,0.00,,BKN034,0.00,0.00,VWS V14.00,2015-05-28 08:48:00,
2015-05-28 04:53:00,76.2,65.7,30.00,ENE,57,3.0,4.0,70,0.00,,BKN034,0.00,0.00,VWS V14.00,2015-05-28 08:53:00,
2015-05-28 04:58:00,76.2,65.7,30.00,ENE,74,2.0,3.0,70,0.00,,BKN034,0.00,0.00,VWS V14.00,2015-05-28 08:58:00,
2015-05-28 05:03:00,76.0,65.5,30.00,ENE,63,2.0,6.0,70,0.00,,BKN034,0.00,0.00,VWS V14.00,2015-05-28 09:03:00,
2015-05-28 05:08:00,76.0,65.5,30.00,ENE,64,4.0,4.0,70,0.00,,BKN034,0.00,0.00,VWS V14.00,2015-05-28 09:08:00,
2015-05-28 05:13:00,76.1,66.0,30.00,NE,49,3.0,6.0,71,0.00,,BKN034,0.00,0.00,VWS V14.00,2015-05-28 09:13:00,
2015-05-28 05:18:00,76.2,66.5,30.00,ENE,71,2.0,4.0,72,0.00,,BKN034,0.00,0.00,VWS V14.00,2015-05-28 09:18:00,
2015-05-28 05:23:00,76.3,66.6,30.00,NE,56,2.0,3.0,72,0.00,,BKN034,0.00,0.00,VWS V14.00,2015-05-28 09:23:00,
2015-05-28 05:28:00,76.2,66.1,30.00,East,84,3.0,4.0,71,0.00,,BKN034,0.00,0.00,VWS V14.00,2015-05-28 09:28:00,
2015-05-28 05:33:00,76.1,66.0,30.01,ENE,78,3.0,6.0,71,0.00,,BKN034,0.00,0.00,VWS V14.00,2015-05-28 09:33:00,
2015-05-28 05:38:00,76.2,66.5,30.00,East,90,2.0,5.0,72,0.00,,BKN034,0.00,0.00,VWS V14.00,2015-05-28 09:38:00,
2015-05-28 05:43:00,76.1,66.0,30.00,East,82,1.0,3.0,71,0.00,,BKN034,0.00,0.00,VWS V14.00,2015-05-28 09:43:00,
2015-05-28 05:48:00,76.1,66.0,30.01,East,91,3.0,3.0,71,0.00,,BKN034,0.00,0.00,VWS V14.00,2015-05-28 09:48:00,
2015-05-28 05:53:00,76.1,66.0,30.01,East,92,4.0,5.0,71,0.00,,BKN034,0.00,0.00,VWS V14.00,2015-05-28 09:53:00,
2015-05-28 05:58:00,76.1,66.0,30.01,ENE,67,3.0,7.0,71,0.00,,BKN034,0.00,0.00,VWS V14.00,2015-05-28 09:58:00,
2015-05-28 06:03:00,76.1,66.0,30.01,East,82,4.0,5.0,71,0.00,,BKN034,0.00,0.00,VWS V14.00,2015-05-28 10:03:00,
2015-05-28 06:08:00,76.1,66.0,30.01,ENE,76,4.0,6.0,71,0.00,,BKN034,0.00,0.00,VWS V14.00,2015-05-28 10:08:00,
2015-05-28 06:13:00,76.1,66.0,30.01,ENE,69,2.0,6.0,71,0.00,,BKN034,0.00,0.00,VWS V14.00,2015-05-28 10:13:00,
2015-05-28 06:18:00,76.1,66.4,30.01,ENE,77,5.0,5.0,72,0.00,,BKN034,0.00,0.00,VWS V14.00,2015-05-28 10:18:00,
2015-05-28 06:23:00,76.0,65.9,30.01,East,85,3.0,5.0,71,0.00,,BKN034,0.00,0.00,VWS V14.00,2015-05-28 10:23:00,
2015-05-28 06:28:00,76.1,66.0,30.01,East,79,3.0,6.0,71,0.00,,BKN034,0.00,0.00,VWS V14.00,2015-05-28 10:28:00,
2015-05-28 06:33:00,76.0,65.9,30.01,East,88,3.0,4.0,71,0.00,,BKN034,0.00,0.00,VWS V14.00,2015-05-28 10:33:00,
2015-05-28 06:38:00,76.1,66.0,30.01,NE,56,5.0,6.0,71,0.00,,BKN034,0.00,0.00,VWS V14.00,2015-05-28 10:38:00,
2015-05-28 06:43:00,76.2,66.1,30.01,East,86,3.0,5.0,71,0.00,,BKN034,0.00,5.00,VWS V14.00,2015-05-28 10:43:00,
2015-05-28 06:48:00,76.3,66.2,30.01,ENE,73,5.0,6.0,71,0.00,,BKN034,0.00,7.00,VWS V14.00,2015-05-28 10:48:00,
2015-05-28 06:53:00,76.3,66.2,30.01,East,85,4.0,6.0,71,0.00,,BKN034,0.00,9.00,VWS V14.00,2015-05-28 10:53:00,
2015-05-28 06:58:00,76.4,66.7,30.01,ENE,69,4.0,6.0,72,0.00,,BKN034,0.00,21.00,VWS V14.00,2015-05-28 10:58:00,
2015-05-28 07:03:00,76.6,66.9,30.01,ENE,63,4.0,4.0,72,0.00,,BKN034,0.00,14.00,VWS V14.00,2015-05-28 11:03:00,
2015-05-28 07:08:00,76.6,66.9,30.01,ENE,69,2.0,4.0,72,0.00,,BKN034,0.00,32.00,VWS V14.00,2015-05-28 11:08:00,
2015-05-28 07:13:00,76.7,67.4,30.02,ENE,76,3.0,6.0,73,0.00,,BKN034,0.00,30.00,VWS V14.00,2015-05-28 11:13:00,
2015-05-28 07:18:00,76.8,66.7,30.02,ENE,76,5.0,5.0,71,0.00,,BKN034,0.00,19.00,VWS V14.00,2015-05-28 11:18:00,
2015-05-28 07:23:00,76.8,67.1,30.02,East,89,3.0,9.0,72,0.00,,BKN034,0.00,19.00,VWS V14.00,2015-05-28 11:23:00,
2015-05-28 07:28:00,77.1,67.0,30.02,ENE,58,5.0,10.0,71,0.00,,BKN034,0.00,60.00,VWS V14.00,2015-05-28 11:28:00,
2015-05-28 07:33:00,77.8,67.2,30.02,East,81,5.0,8.0,70,0.00,,FEW030,0.00,47.00,VWS V14.00,2015-05-28 11:33:00,
2015-05-28 07:38:00,77.9,66.9,30.02,ENE,77,3.0,10.0,69,0.00,,FEW030,0.00,37.00,VWS V14.00,2015-05-28 11:38:00,
2015-05-28 07:43:00,78.2,67.2,30.02,East,96,10.0,10.0,69,0.00,,FEW030,0.00,74.00,VWS V14.00,2015-05-28 11:43:00,
2015-05-28 07:48:00,78.7,66.4,30.02,ENE,67,5.0,11.0,66,0.00,,FEW030,0.00,74.00,VWS V14.00,2015-05-28 11:48:00,
2015-05-28 07:53:00,79.1,65.9,30.02,East,80,7.0,10.0,64,0.00,,FEW030,0.00,77.00,VWS V14.00,2015-05-28 11:53:00,
2015-05-28 07:58:00,79.3,65.6,30.03,East,93,8.0,13.0,63,0.00,,FEW030,0.00,79.00,VWS V14.00,2015-05-28 11:58:00,
2015-05-28 08:03:00,79.6,65.0,30.03,East,83,7.0,10.0,61,0.00,,FEW030,0.00,81.00,VWS V14.00,2015-05-28 12:03:00,
2015-05-28 08:08:00,79.6,65.0,30.03,ENE,59,9.0,16.0,61,0.00,,FEW030,0.00,84.00,VWS V14.00,2015-05-28 12:08:00,
2015-05-28 08:13:00,79.6,65.9,30.02,East,90,10.0,12.0,63,0.00,,FEW030,0.00,86.00,VWS V14.00,2015-05-28 12:13:00,
2015-05-28 08:18:00,79.7,66.5,30.02,ESE,111,7.0,9.0,64,0.00,,FEW030,0.00,90.00,VWS V14.00,2015-05-28 12:18:00,
2015-05-28 08:23:00,79.8,66.1,30.03,East,88,6.0,11.0,63,0.00,,FEW030,0.00,90.00,VWS V14.00,2015-05-28 12:23:00,
2015-05-28 08:28:00,79.9,66.7,30.03,ENE,78,8.0,11.0,64,0.00,,FEW030,0.00,98.00,VWS V14.00,2015-05-28 12:28:00,
2015-05-28 08:33:00,79.7,67.3,30.03,ENE,71,6.0,11.0,66,0.00,,FEW030,0.00,91.00,VWS V14.00,2015-05-28 12:33:00,
2015-05-28 08:38:00,79.8,67.9,30.03,East,80,14.0,18.0,67,0.00,,FEW030,0.00,109.00,VWS V14.00,2015-05-28 12:38:00,
2015-05-28 08:43:00,79.8,67.4,30.03,ESE,103,14.0,15.0,66,0.00,,FEW030,0.00,116.00,VWS V14.00,2015-05-28 12:43:00,
2015-05-28 08:48:00,79.9,67.5,30.04,ENE,65,12.0,13.0,66,0.00,,FEW030,0.00,114.00,VWS V14.00,2015-05-28 12:48:00,
2015-05-28 08:53:00,79.7,67.8,30.04,ENE,70,12.0,12.0,67,0.00,,FEW030,0.00,56.00,VWS V14.00,2015-05-28 12:53:00,
2015-05-28 08:58:00,79.8,67.0,30.04,East,96,7.0,15.0,65,0.00,,FEW030,0.00,121.00,VWS V14.00,2015-05-28 12:58:00,
2015-05-28 09:03:00,80.3,67.9,30.03,East,88,10.0,13.0,66,0.00,,FEW030,0.00,123.00,VWS V14.00,2015-05-28 13:03:00,
2015-05-28 09:08:00,80.5,67.2,30.03,ESE,109,11.0,11.0,64,0.00,,FEW030,0.00,127.00,VWS V14.00,2015-05-28 13:08:00,
2015-05-28 09:13:00,80.5,66.8,30.04,East,84,10.0,15.0,63,0.00,,FEW030,0.00,134.00,VWS V14.00,2015-05-28 13:13:00,
2015-05-28 09:18:00,80.7,66.5,30.04,ESE,116,9.0,18.0,62,0.00,,FEW030,0.00,74.00,VWS V14.00,2015-05-28 13:18:00,
2015-05-28 09:23:00,80.6,66.4,30.04,ENE,77,12.0,16.0,62,0.00,,FEW030,0.00,54.00,VWS V14.00,2015-05-28 13:23:00,
2015-05-28 09:28:00,80.2,64.6,30.04,NE,46,10.0,16.0,59,0.00,,FEW030,0.00,139.00,VWS V14.00,2015-05-28 13:28:00,
2015-05-28 09:33:00,80.5,64.4,30.04,ESE,109,9.0,12.0,58,0.00,,FEW035,0.00,132.00,VWS V14.00,2015-05-28 13:33:00,
2015-05-28 09:38:00,81.1,63.9,30.04,East,86,11.0,13.0,56,0.00,,FEW035,0.00,130.00,VWS V14.00,2015-05-28 13:38:00,
2015-05-28 09:44:00,81.5,62.7,30.05,East,94,10.0,19.0,53,0.00,,FEW035,0.00,132.00,VWS V14.00,2015-05-28 13:44:00,
2015-05-28 09:49:00,81.2,64.0,30.04,East,87,6.0,15.0,56,0.00,,FEW035,0.00,134.00,VWS V14.00,2015-05-28 13:49:00,
2015-05-28 09:54:00,81.1,64.9,30.04,ENE,63,14.0,15.0,58,0.00,,FEW035,0.00,134.00,VWS V14.00,2015-05-28 13:54:00,
2015-05-28 09:59:00,80.9,63.8,30.05,ENE,60,9.0,19.0,56,0.00,,FEW035,0.00,135.00,VWS V14.00,2015-05-28 13:59:00,
2015-05-28 10:04:00,81.6,64.4,30.04,East,86,7.0,13.0,56,0.00,,FEW035,0.00,141.00,VWS V14.00,2015-05-28 14:04:00,
2015-05-28 10:09:00,82.1,66.4,30.04,ENE,67,6.0,9.0,59,0.00,,FEW035,0.00,141.00,VWS V14.00,2015-05-28 14:09:00,
2015-05-28 10:14:00,81.4,65.7,30.05,ENE,64,16.0,16.0,59,0.00,,FEW035,0.00,149.00,VWS V14.00,2015-05-28 14:14:00,
2015-05-28 10:19:00,80.8,66.6,30.05,East,99,9.0,14.0,62,0.00,,FEW035,0.00,88.00,VWS V14.00,2015-05-28 14:19:00,
2015-05-28 10:24:00,81.3,67.1,30.05,ENE,71,5.0,13.0,62,0.00,,FEW035,0.00,113.00,VWS V14.00,2015-05-28 14:24:00,
2015-05-28 10:29:00,81.0,66.8,30.05,ESE,105,12.0,15.0,62,0.00,,FEW035,0.00,70.00,VWS V14.00,2015-05-28 14:29:00,
2015-05-28 10:34:00,81.1,66.9,30.05,East,94,12.0,19.0,62,0.00,,FEW035,0.00,160.00,VWS V14.00,2015-05-28 14:34:00,
2015-05-28 10:39:00,81.4,67.1,30.05,ENE,69,9.0,11.0,62,0.00,,FEW035,0.00,167.00,VWS V14.00,2015-05-28 14:39:00,
2015-05-28 10:44:00,81.4,66.7,30.05,East,86,10.0,12.0,61,0.00,,FEW035,0.00,167.00,VWS V14.00,2015-05-28 14:44:00,
2015-05-28 10:49:00,82.1,66.4,30.05,ENE,67,13.0,13.0,59,0.00,,FEW035,0.00,128.00,VWS V14.00,2015-05-28 14:49:00,
2015-05-28 10:54:00,81.4,66.2,30.05,NNE,28,7.0,14.0,60,0.00,,FEW035,0.00,149.00,VWS V14.00,2015-05-28 14:54:00,
2015-05-28 10:59:00,80.9,66.7,30.05,NE,53,11.0,14.0,62,0.00,,FEW035,0.00,172.00,VWS V14.00,2015-05-28 14:59:00,
2015-05-28 11:04:00,81.1,67.8,30.06,NNE,32,12.0,16.0,64,0.00,,FEW035,0.00,171.00,VWS V14.00,2015-05-28 15:04:00,
2015-05-28 11:09:00,81.4,66.2,30.05,ENE,74,9.0,14.0,60,0.00,,FEW035,0.00,172.00,VWS V14.00,2015-05-28 15:09:00,
2015-05-28 11:14:00,82.0,67.2,30.05,East,90,6.0,13.0,61,0.00,,FEW035,0.00,197.00,VWS V14.00,2015-05-28 15:14:00,
2015-05-28 11:19:00,82.1,66.8,30.06,ENE,74,11.0,11.0,60,0.00,,FEW035,0.00,207.00,VWS V14.00,2015-05-28 15:19:00,
2015-05-28 11:24:00,81.4,67.6,30.05,ENE,67,12.0,13.0,63,0.00,,FEW035,0.00,209.00,VWS V14.00,2015-05-28 15:24:00,
2015-05-28 11:29:00,81.4,68.1,30.05,NE,49,6.0,12.0,64,0.00,,FEW035,0.00,102.00,VWS V14.00,2015-05-28 15:29:00,
2015-05-28 11:34:00,82.0,67.7,30.05,NE,51,4.0,12.0,62,0.00,,FEW035,0.00,204.00,VWS V14.00,2015-05-28 15:34:00,
2015-05-28 11:39:00,82.5,68.2,30.05,East,92,9.0,12.0,62,0.00,,FEW035,0.00,76.00,VWS V14.00,2015-05-28 15:39:00,
2015-05-28 11:44:00,81.5,68.2,30.05,ENE,68,9.0,10.0,64,0.00,,FEW035,0.00,74.00,VWS V14.00,2015-05-28 15:44:00,
2015-05-28 11:49:00,81.2,67.4,30.05,ENE,69,10.0,13.0,63,0.00,,FEW035,0.00,83.00,VWS V14.00,2015-05-28 15:49:00,
2015-05-28 11:54:00,81.4,66.7,30.05,NE,55,3.0,11.0,61,0.00,,FEW035,0.00,185.00,VWS V14.00,2015-05-28 15:54:00,
2015-05-28 11:59:00,82.6,66.8,30.05,SE,130,9.0,13.0,59,0.00,,FEW035,0.00,199.00,VWS V14.00,2015-05-28 15:59:00,
2015-05-28 12:04:00,82.8,66.0,30.05,NE,46,15.0,16.0,57,0.00,,FEW035,0.00,200.00,VWS V14.00,2015-05-28 16:04:00,
2015-05-28 12:09:00,82.0,66.8,30.05,ENE,57,6.0,12.0,60,0.00,,FEW035,0.00,204.00,VWS V14.00,2015-05-28 16:09:00,
2015-05-28 12:15:00,82.9,66.6,30.05,ENE,65,7.0,13.0,58,0.00,,FEW035,0.00,206.00,VWS V14.00,2015-05-28 16:15:00,
2015-05-28 12:19:00,82.8,67.5,30.05,East,79,11.0,17.0,60,0.00,,FEW035,0.00,220.00,VWS V14.00,2015-05-28 16:19:00,
2015-05-28 12:25:00,82.4,66.7,30.05,NE,42,11.0,15.0,59,0.00,,FEW035,0.00,100.00,VWS V14.00,2015-05-28 16:25:00,
2015-05-28 12:30:00,82.0,67.7,30.05,East,86,13.0,15.0,62,0.00,,FEW035,0.00,86.00,VWS V14.00,2015-05-28 16:30:00,
2015-05-28 12:35:00,81.9,66.7,30.04,ENE,61,10.0,13.0,60,0.00,,FEW035,0.00,118.00,VWS V14.00,2015-05-28 16:35:00,
2015-05-28 12:40:00,82.3,68.5,30.04,East,92,4.0,7.0,63,0.00,,FEW035,0.00,88.00,VWS V14.00,2015-05-28 16:40:00,
2015-05-28 12:45:00,82.4,67.1,30.04,ENE,67,12.0,14.0,60,0.00,,FEW035,0.00,218.00,VWS V14.00,2015-05-28 16:45:00,
2015-05-28 12:50:00,82.6,68.3,30.04,East,82,10.0,12.0,62,0.00,,FEW035,0.00,216.00,VWS V14.00,2015-05-28 16:50:00,
2015-05-28 12:55:00,82.6,68.3,30.04,NE,38,8.0,13.0,62,0.00,,FEW035,0.00,188.00,VWS V14.00,2015-05-28 16:55:00,
2015-05-28 13:00:00,82.3,67.5,30.04,ENE,65,11.0,13.0,61,0.00,,FEW035,0.00,100.00,VWS V14.00,2015-05-28 17:00:00,
2015-05-28 13:05:00,82.5,67.7,30.04,NE,56,7.0,9.0,61,0.00,,FEW035,0.00,105.00,VWS V14.00,2015-05-28 17:05:00,